Flag for Canada Weather past 2 weeks in Whitby, Ontario, Canada

Now
48 °F

Clear.


Feels Like: 45 °F
Forecast: 38 / 52 °F
Wind: 7 mph from North

Location: Toronto Buttonville

Current Time: Apr 19, 2015 at 12:14:38 AM

Latest Report: Apr 18, 2015 at 11:00 PM


Visibility: 15 mi

Pressure: 30.21 "Hg

Humidity: 46%

Dew point: 28 °F

Location of WhitbyLocation

Historic Weather in Whitby — Graph

°F

Whitby temperature yesterday

Maximum temperature yesterday: 64 °F (at 10:00 AM)
Minimum temperature yesterday: 41 °F (at 5:00 AM)
Average temperature yesterday: 53 °F

Past Weeks' High & Low Weather Summary

 TemperatureHumidityPressure
High73 °F (Apr 13, 4:00 PM)100% (Apr 8, 2:00 PM)30.42 "Hg (Apr 8, 2:00 PM)
Low27 °F (Apr 5, 4:00 AM)20% (Apr 14, 4:00 PM)29.41 "Hg (Apr 10, 11:00 AM)
Average45 °F64%30.11 "Hg
* Reported Apr 3 10:00 PM — Apr 18 10:00 PM, Whitby, Weather by CustomWeather, © 2015

Note: Actual official high and low records may vary slightly from our data, if they occured in-between our weather recording intervals... More about our weather records

Advertising

Whitby weather history for previous 24 hours

 ConditionsComfort  
Time TempWeatherWind HumidityBarometerVisibility
10:00 PM
Sat, Apr 18
48 °FClear.7 mph50%30.21 "Hg15 mi
9:00 PM50 °FPassing clouds.9 mph47%30.19 "Hg15 mi
8:00 PM54 °FPassing clouds.9 mph41%30.17 "Hg15 mi
7:00 PM57 °FPassing clouds.12 mph39%30.16 "Hg15 mi
6:00 PM61 °FPassing clouds.10 mph36%30.13 "Hg15 mi
5:00 PM63 °FPassing clouds.13 mph30%30.11 "Hg15 mi
4:00 PM63 °FPassing clouds.16 mph30%30.08 "Hg15 mi
3:00 PM63 °FPassing clouds.14 mph30%30.07 "Hg15 mi
2:00 PM61 °FPassing clouds.15 mph39%30.06 "Hg15 mi
1:00 PM61 °FPassing clouds.20 mph36%30.04 "Hg15 mi
12:00 PM61 °FSunny.16 mph36%30.03 "Hg15 mi
11:00 AM63 °FSunny.18 mph42%30.01 "Hg15 mi
10:00 AM64 °FPassing clouds.23 mph43%29.96 "Hg15 mi
9:00 AM57 °FPassing clouds.6 mph63%29.96 "Hg15 mi
8:00 AM48 °FScattered clouds.No wind76%29.96 "Hg15 mi
7:00 AM45 °FPassing clouds.3 mph81%29.97 "Hg15 mi
6:00 AM41 °FPassing clouds.No wind87%29.95 "Hg15 mi
5:00 AM41 °FClear.No wind87%29.95 "Hg15 mi
4:00 AM43 °FClear.No wind87%29.96 "Hg15 mi
3:00 AM45 °FClear.No wind81%29.97 "Hg15 mi
2:00 AM46 °FClear.No wind76%29.99 "Hg15 mi
1:00 AM46 °FClear.No wind76%29.99 "Hg15 mi
12:00 AM48 °FClear.No wind71%30.00 "Hg15 mi
Weather by CustomWeather, © 2015

See weather overviewHow to use our weather pages